Theta_e
342 342 341 341 340 340 340 340 339 337 335 336 339 339 340 340 339 340 339 338 337 336 335 334 333 334 335 335 336 337 337 337 337 337 335 335 334 333 333 333 333 332 331 331 331 332 334 334 335 335 335 336 336 334 334 334 333 331 327 324 326 329
340 341 340 339 339 340 340 339 337 336 337 338 339 340 341 341 340 339 337 337 336 334 334 333 332 332 332 334 335 335 336 337 337 336 335 335 334 333 333 333 333 333 332 331 332 332 333 332 334 336 336 337 337 334 333 333 332 330 326 324 325 328
339 340 338 337 337 338 339 337 336 337 338 339 339 341 340 339 338 336 336 336 335 335 335 334 334 332 330 333 334 333 335 336 336 335 335 335 334 333 333 333 333 333 332 332 332 331 331 330 333 336 337 337 337 334 333 333 332 329 325 324 326 328
339 339 337 337 336 337 337 336 338 338 338 339 340 339 337 335 334 334 335 335 336 337 337 336 336 335 330 331 332 331 332 333 334 334 334 335 334 333 333 332 332 333 334 335 335 335 334 331 331 333 336 337 335 333 333 332 332 328 324 325 327 328
340 338 337 336 336 336 336 337 338 338 338 339 339 337 334 333 333 334 334 334 338 340 339 338 338 337 333 331 331 331 330 330 330 331 333 334 334 333 332 332 332 332 334 336 336 336 337 335 333 331 334 336 334 333 333 332 331 328 324 324 325 326
339 338 337 335 336 335 336 337 338 337 338 339 338 336 334 334 334 334 333 335 339 340 339 339 338 338 336 334 333 332 331 330 329 329 331 333 334 332 332 332 332 331 333 335 335 335 336 336 336 332 333 335 333 333 334 333 332 329 326 326 325 324
339 338 337 336 336 335 335 337 337 338 339 338 338 337 337 337 337 336 335 336 339 340 339 338 337 337 338 336 335 333 333 333 332 330 329 331 331 330 330 331 332 331 331 333 333 334 335 336 336 333 332 335 333 333 334 333 332 329 327 327 325 323
339 339 337 337 338 336 337 338 338 339 339 338 339 339 339 339 339 339 338 337 338 339 338 338 337 337 337 337 336 334 335 336 336 333 330 329 329 329 329 331 333 332 331 332 333 333 333 334 335 333 333 335 333 333 334 333 332 329 328 329 326 322
340 339 338 338 338 337 338 339 339 340 340 339 340 340 339 338 338 339 338 337 338 338 337 337 338 337 337 338 337 336 336 337 336 335 333 331 331 330 330 332 333 332 331 332 333 333 332 333 334 334 333 334 333 334 335 334 332 330 329 329 326 321
340 339 338 338 336 336 339 339 339 340 340 340 340 339 339 338 338 338 337 337 338 337 336 336 338 338 337 338 338 337 337 337 336 336 335 334 334 332 331 333 333 332 332 333 333 333 332 332 332 332 333 332 332 334 335 334 333 331 330 329 326 323
341 339 338 337 334 336 339 339 338 339 340 340 339 339 339 338 337 338 336 337 338 337 335 335 337 337 337 338 337 336 336 336 335 335 335 335 334 333 332 333 333 333 333 333 333 332 331 331 331 331 332 332 331 333 334 334 334 333 331 328 326 325
341 340 338 337 336 339 339 338 337 338 339 339 339 339 339 338 337 338 337 337 338 337 334 334 336 336 336 336 336 335 335 334 333 334 334 334 333 332 333 334 334 335 334 333 333 331 331 331 331 331 331 332 331 333 335 334 334 334 331 328 326 325
341 340 338 338 339 340 339 338 337 337 339 339 339 339 339 339 338 338 337 337 337 336 334 333 335 335 335 335 336 335 334 333 333 334 335 335 333 333 335 335 335 335 335 333 333 331 331 331 331 331 331 331 330 332 335 335 334 334 332 329 327 326
341 339 338 339 340 340 339 338 337 338 340 340 340 340 339 339 338 337 337 336 336 336 334 334 334 335 335 335 335 334 334 333 333 334 336 335 334 334 336 336 335 336 335 332 332 332 331 331 331 331 331 331 330 332 335 336 335 334 333 330 327 326
341 339 339 340 339 339 339 337 337 339 340 340 340 340 339 338 338 337 337 337 336 336 336 335 334 334 334 334 333 333 334 334 334 335 335 335 336 335 336 337 336 336 334 330 331 331 331 331 331 331 331 331 331 332 335 336 335 335 334 330 327 326
341 339 338 339 339 339 339 338 337 338 339 340 340 339 338 337 337 336 336 337 336 336 336 336 335 333 333 333 332 334 334 334 335 336 336 336 337 336 336 336 335 335 333 330 331 331 331 331 331 331 331 331 331 332 334 336 334 334 333 331 329 327
340 338 336 337 339 339 338 338 339 339 340 340 339 338 338 338 337 337 336 337 336 336 336 336 336 334 333 332 332 335 335 335 335 336 336 337 337 336 336 336 335 335 333 329 330 331 331 331 331 331 331 331 331 331 332 334 334 334 333 333 332 330
338 337 336 336 337 338 338 339 339 340 340 339 338 337 337 338 338 337 336 336 335 336 336 336 335 334 334 333 334 336 335 336 337 337 337 337 337 336 335 336 335 336 333 330 330 331 330 331 331 331 332 331 332 331 332 333 333 333 333 333 333 331
337 337 335 334 335 336 337 337 337 337 337 337 337 336 336 337 337 336 336 336 335 335 335 335 334 334 335 335 335 336 336 336 337 337 336 336 337 335 335 336 335 334 333 331 331 331 331 331 331 332 332 332 333 332 333 333 333 333 333 333 332 331
336 335 333 333 334 334 334 334 334 335 336 337 336 336 336 336 337 336 336 336 336 335 335 335 333 333 335 335 336 336 336 336 336 336 336 336 336 336 336 335 334 333 332 331 331 332 331 331 331 332 332 332 333 333 333 333 332 332 332 332 332 331
333 332 332 332 333 333 334 334 335 336 336 336 336 336 336 336 336 336 336 336 336 335 335 334 334 334 335 335 335 335 334 336 336 335 335 336 335 336 336 334 334 334 332 331 331 331 331 331 331 331 331 332 332 333 333 332 332 331 331 332 332 331
334 332 332 332 334 335 336 335 335 335 334 335 336 336 336 336 336 336 336 336 335 334 334 334 334 334 335 335 336 335 334 335 335 335 335 335 335 335 336 335 335 335 332 331 331 331 331 331 332 331 331 331 331 331 331 331 332 331 330 331 331 331
336 333 332 333 335 336 336 335 334 334 333 334 335 336 336 336 336 336 336 336 335 333 333 333 334 334 334 335 335 334 333 334 335 335 335 335 335 335 335 335 335 334 333 332 332 332 332 332 332 331 331 332 331 331 331 331 331 331 330 330 330 331
338 335 333 335 336 336 336 335 334 334 334 335 335 335 336 336 336 335 335 336 335 334 333 333 334 334 334 335 334 333 332 333 335 336 335 335 335 335 335 335 335 334 333 333 332 332 332 332 332 331 332 332 331 331 333 331 329 329 329 330 330 330
338 337 336 337 336 336 336 335 334 334 334 334 334 334 335 336 336 335 335 335 335 335 334 334 335 334 334 334 334 333 334 334 335 335 335 335 335 335 336 336 335 333 333 333 333 333 333 332 332 331 331 332 331 333 333 330 329 329 328 329 330 329
338 337 337 337 336 335 335 335 333 333 333 333 334 334 334 336 336 335 335 334 335 335 334 334 334 334 335 334 334 334 334 335 334 333 335 335 335 335 335 335 334 334 333 332 333 333 332 332 332 331 330 331 332 334 332 329 330 330 328 328 329 329
338 337 337 337 336 335 335 334 333 333 333 333 334 334 335 335 336 335 334 334 335 334 334 335 334 334 334 334 334 334 334 335 334 334 335 335 334 335 334 334 334 334 333 332 333 332 331 331 331 331 330 331 331 330 330 329 329 330 330 329 329 329
338 338 337 337 337 336 335 334 333 333 333 333 334 334 335 335 335 334 334 334 334 334 334 335 334 333 333 333 335 334 334 335 334 334 335 335 334 334 334 334 334 334 333 332 332 332 331 331 331 331 331 331 331 330 329 329 329 329 330 330 329 328
338 338 337 337 337 336 335 334 334 334 334 334 334 334 334 334 334 334 334 334 334 334 334 334 333 334 333 333 335 335 334 335 334 335 334 333 333 333 333 333 333 333 333 332 332 332 332 331 331 331 331 331 331 331 329 329 329 328 329 330 330 328
338 338 338 337 336 335 335 335 334 335 335 335 335 334 334 335 334 334 334 334 333 333 334 333 334 334 333 334 335 335 335 335 335 335 334 334 333 333 333 333 333 333 333 332 332 332 331 332 331 331 331 331 332 331 329 329 329 329 328 328 329 328
338 338 337 336 336 335 335 334 334 335 334 334 334 334 335 336 335 333 333 333 332 332 333 334 334 334 334 334 334 334 334 334 335 334 334 334 333 333 333 333 334 333 333 333 332 332 332 331 332 332 331 331 332 331 330 329 329 329 329 327 328 328
338 337 337 336 336 334 334 334 334 334 333 333 333 334 335 335 333 333 333 332 332 333 333 333 333 333 333 333 333 334 333 333 334 333 333 333 333 334 333 333 333 333 333 332 331 331 332 331 331 332 332 331 331 331 330 330 329 329 329 328 328 327
336 336 335 335 335 334 334 334 333 334 333 333 334 335 335 334 333 333 333 333 333 334 333 333 333 333 332 332 332 333 333 332 332 332 332 333 333 334 333 333 334 334 334 332 330 330 331 331 332 332 331 330 330 330 329 329 329 329 329 328 328 327
335 335 334 334 335 335 334 334 334 333 333 333 334 335 335 334 334 334 333 333 333 333 333 332 332 332 332 332 332 332 332 331 331 331 331 331 333 333 333 333 333 333 333 332 331 331 330 331 332 331 330 330 330 330 329 329 330 330 329 328 328 327
334 334 335 334 334 335 335 334 335 334 333 333 334 335 335 335 334 334 333 333 333 332 332 332 332 332 331 331 331 331 331 330 330 330 330 330 331 332 332 333 333 332 332 332 332 332 331 331 331 331 331 331 331 331 330 328 328 329 329 328 328 327
333 333 335 335 334 334 334 334 335 335 334 333 334 335 335 334 334 334 333 332 332 332 332 332 332 331 331 330 330 330 330 330 329 330 330 329 329 330 331 332 332 332 331 331 332 332 331 331 330 330 331 332 332 331 330 328 328 329 329 328 327 327
332 332 333 334 334 334 334 334 334 334 335 335 334 335 334 334 334 333 332 332 331 331 331 332 331 331 331 330 329 329 329 329 329 329 329 329 329 330 330 330 331 331 331 331 332 331 331 331 331 331 331 332 332 330 329 328 328 328 329 328 327 326
Wind_Speed
27 28 27 26 24 24 24 25 25 24 23 23 22 21 21 21 20 18 16 16 15 14 14 13 12 12 13 13 12 11 9 9 8 6 6 6 7 7 8 9 9 10 11 13 14 14 12 12 12 13 14 17 16 13 11 9 9 10 11 12 15 15
27 27 26 24 24 24 25 25 25 25 23 22 22 22 23 22 20 18 17 17 16 15 15 14 13 13 13 13 12 11 10 9 8 7 7 7 7 8 8 9 10 10 11 12 12 11 10 10 11 12 13 15 14 11 10 8 8 10 11 13 15 16
28 27 26 25 24 25 26 26 25 25 24 24 24 24 24 22 21 20 19 17 16 15 14 13 13 13 12 13 13 11 10 10 9 7 7 8 8 8 8 9 9 9 10 11 10 8 7 7 9 10 11 13 12 10 10 7 7 10 12 14 16 16
28 29 27 26 26 27 27 27 26 25 25 26 26 25 24 23 22 20 19 18 17 14 13 13 13 13 12 13 12 11 10 10 9 8 8 8 8 7 8 8 8 9 10 10 9 7 5 5 5 5 6 12 12 11 10 8 9 12 14 15 15 14
29 29 28 28 28 29 29 27 26 26 26 27 27 26 24 23 22 20 19 19 17 16 14 13 14 13 13 13 12 11 10 9 8 8 9 9 8 8 8 8 7 9 9 9 7 5 3 2 1 1 0 9 12 11 9 8 10 12 12 13 14 13
29 29 29 29 29 29 29 28 26 26 26 27 26 25 24 22 21 20 20 19 18 18 16 15 15 14 13 13 12 11 9 8 6 7 9 10 9 9 10 9 8 7 8 7 4 3 2 1 3 4 3 5 10 9 8 7 8 9 10 12 13 13
30 30 30 28 28 29 28 27 26 25 25 25 24 23 22 21 20 20 20 19 19 19 17 16 16 14 13 12 12 10 8 7 6 7 9 10 10 9 9 9 8 6 7 6 4 5 4 4 5 5 4 3 8 7 7 7 7 8 10 12 13 14
31 31 30 28 27 28 27 25 24 23 22 22 22 22 21 21 21 21 20 19 19 20 18 17 16 14 12 11 11 9 8 7 6 7 8 9 10 9 8 8 6 5 6 6 6 6 4 6 8 6 4 4 7 8 7 8 8 9 11 12 14 14
33 33 30 27 26 27 25 23 22 20 20 20 20 21 21 21 22 21 20 19 19 20 20 18 16 13 12 11 11 9 8 7 5 6 8 9 9 8 8 8 6 7 7 6 5 5 5 8 10 6 4 4 6 9 9 9 9 10 12 12 14 14
32 32 30 28 28 28 25 23 21 19 19 20 21 22 21 22 22 20 20 19 19 20 19 19 16 14 13 12 11 10 10 8 5 4 6 8 8 9 8 7 8 9 7 6 4 5 7 9 8 6 4 5 8 11 11 11 10 10 12 13 14 14
29 31 31 30 31 29 26 24 23 20 20 21 22 22 21 21 21 19 19 18 19 20 19 18 17 14 15 13 12 12 13 12 10 7 6 7 9 10 7 5 7 7 7 7 5 5 7 9 7 4 4 5 9 14 14 12 12 11 12 13 14 14
27 30 30 29 27 26 26 27 26 23 22 22 23 22 21 20 19 18 18 18 18 19 19 18 16 16 17 15 13 14 15 13 13 10 6 7 9 10 8 8 8 7 8 7 5 5 7 7 5 4 7 8 10 15 15 14 13 11 11 13 13 14
25 28 29 26 24 23 24 26 27 26 23 23 24 23 21 19 18 18 19 19 18 18 19 17 16 16 15 14 14 14 14 13 13 11 8 9 10 10 9 9 8 7 8 8 7 6 6 5 5 7 10 10 11 15 16 15 15 12 11 12 13 13
23 26 26 23 23 23 23 25 25 25 23 22 22 21 19 17 17 18 18 18 18 18 18 17 16 15 13 13 14 13 12 13 13 11 11 12 11 12 9 8 8 7 5 13 12 6 5 6 9 10 10 10 11 15 17 15 14 12 11 12 13 13
23 27 24 22 25 26 24 25 25 24 21 21 21 20 18 17 17 18 18 17 17 18 18 16 15 14 13 12 11 11 12 12 11 12 14 12 10 11 8 6 6 6 4 17 13 7 7 8 10 9 8 9 11 17 17 15 14 13 12 13 13 13
26 26 22 23 27 26 24 25 26 24 22 20 21 19 18 17 18 18 18 18 17 17 17 14 12 13 12 11 10 11 13 11 12 14 14 12 9 8 7 6 6 5 8 21 16 12 11 9 11 9 9 10 12 16 16 14 15 14 12 13 13 13
26 23 23 25 26 22 22 23 22 23 21 19 19 18 19 19 18 18 18 18 16 15 16 13 11 12 11 11 12 13 13 12 13 14 14 14 10 7 7 7 6 6 9 20 14 10 11 11 13 12 11 12 12 13 13 14 14 14 14 13 12 13
23 24 25 24 24 18 17 20 18 18 17 14 15 15 18 19 17 17 17 17 15 13 15 14 12 11 11 11 13 13 13 13 14 13 13 13 9 8 8 7 6 5 8 15 11 9 14 15 13 11 12 12 12 13 13 13 12 12 13 13 12 12
20 24 22 20 23 15 13 18 15 13 14 12 13 14 17 18 16 16 16 15 14 14 15 15 14 13 12 12 13 12 12 13 13 13 13 12 9 7 8 8 8 6 8 12 12 11 14 17 15 13 14 13 12 12 11 11 10 10 12 11 12 12
14 20 20 19 19 12 15 18 16 14 14 14 15 16 17 16 15 16 16 15 15 15 16 16 16 16 14 12 12 11 11 12 13 13 12 12 10 7 8 11 10 9 12 13 13 12 14 18 19 16 15 14 11 8 8 10 9 10 11 10 11 13
10 17 18 16 15 14 16 17 17 17 17 17 18 17 17 15 14 14 15 16 17 17 17 17 17 17 15 14 12 11 11 12 13 12 11 11 10 8 10 10 10 10 15 18 17 16 19 22 20 16 14 14 11 8 8 9 9 10 11 10 11 12
16 19 20 19 20 22 20 18 18 20 20 21 21 20 19 17 15 15 16 18 18 18 18 18 17 16 15 15 13 12 12 12 12 11 11 11 10 9 10 10 10 10 13 16 16 18 22 19 15 14 13 13 10 8 7 8 9 9 9 9 10 11
19 21 24 24 27 29 26 23 21 22 24 23 23 23 21 20 18 17 18 19 18 18 18 18 16 15 15 15 14 13 13 14 12 11 11 11 11 11 11 10 11 11 12 15 14 16 17 12 13 16 14 8 4 4 5 6 7 8 8 8 9 11
17 20 24 23 27 29 26 24 22 23 25 24 23 23 21 20 19 19 20 20 18 17 17 16 15 14 16 16 15 14 14 15 13 12 11 12 13 14 13 12 12 12 14 18 16 14 12 11 17 18 9 4 3 3 2 3 6 7 8 9 9 10
18 20 23 22 24 26 26 25 23 22 22 21 22 23 22 21 20 21 22 20 19 17 16 16 15 16 16 17 16 14 14 15 14 14 13 13 15 16 15 15 14 13 14 17 17 14 12 14 18 16 9 6 4 2 2 6 8 5 5 7 7 9
22 22 24 24 24 26 28 28 27 26 24 22 23 25 27 26 25 24 22 20 19 17 17 16 15 15 16 16 16 16 16 16 15 15 14 14 16 16 16 15 15 13 13 14 16 16 15 16 15 12 10 8 3 4 8 10 6 2 3 5 6 8
26 27 27 27 26 27 29 31 31 31 29 27 26 26 29 29 28 25 21 20 19 18 18 16 15 15 15 15 16 17 18 17 17 16 15 15 14 15 15 14 14 13 13 14 15 17 17 16 14 9 9 7 2 8 17 13 6 4 3 3 5 7
29 29 29 29 29 29 31 33 33 31 29 29 27 25 26 27 26 24 22 21 19 19 18 17 16 15 15 15 16 17 17 16 17 16 15 15 14 14 14 14 14 13 13 13 14 16 18 17 15 11 10 7 6 12 17 10 10 12 6 2 4 5
30 30 31 31 32 32 33 33 32 30 28 28 25 22 23 24 24 23 22 22 20 18 18 17 16 15 16 17 16 17 17 17 17 16 14 13 13 13 14 14 14 13 13 14 14 15 17 17 16 14 12 10 11 14 13 8 12 14 8 5 4 3
30 31 32 33 35 35 34 32 31 30 29 27 23 19 19 21 23 22 21 21 20 19 19 18 15 16 17 15 15 17 18 18 17 15 14 13 13 14 14 14 14 14 15 15 15 14 16 17 15 14 13 13 14 15 12 8 11 12 9 7 5 5
29 30 30 32 35 35 33 32 31 30 29 26 23 20 19 19 21 21 21 21 20 20 21 19 17 18 17 15 14 15 16 17 16 15 14 13 14 15 15 15 15 15 15 15 15 15 15 16 15 14 13 13 16 16 14 11 13 15 12 8 6 7
28 29 27 27 29 29 30 30 29 28 27 25 24 23 21 19 20 22 23 22 21 21 20 20 20 20 20 18 17 16 14 14 15 15 15 15 16 15 15 16 15 14 14 13 14 15 16 15 15 15 13 13 13 14 14 14 17 18 15 15 14 9
24 24 22 21 20 21 23 24 24 26 26 24 24 24 22 21 21 22 23 22 22 22 21 21 21 21 22 20 18 18 16 15 15 14 14 16 17 15 16 16 15 14 13 13 14 15 16 15 14 14 13 11 11 11 11 13 18 17 15 20 20 12
14 16 15 14 14 15 18 19 19 22 25 24 24 24 22 22 22 22 22 22 23 23 23 22 21 22 23 21 19 18 17 16 16 14 13 15 16 15 16 16 15 14 13 13 14 14 15 15 14 13 12 11 11 11 10 13 17 16 17 22 22 17
1 5 9 10 11 14 17 17 16 19 22 23 23 23 21 21 22 21 22 23 23 23 23 22 21 21 21 20 19 18 16 16 17 15 14 14 13 14 15 15 14 13 12 12 13 14 15 15 14 14 12 11 11 10 10 13 15 15 18 22 24 24
2 1 4 8 12 15 17 17 16 17 19 21 22 21 20 20 21 22 21 22 23 23 23 22 20 20 20 19 19 18 17 17 17 16 14 14 12 13 15 14 14 13 12 13 13 13 14 15 15 15 13 13 12 11 11 13 16 17 17 19 22 24
11 8 9 13 17 18 18 18 19 18 17 19 21 21 21 20 21 23 20 19 23 23 22 22 20 20 21 19 18 18 18 16 16 15 14 14 13 13 13 12 14 14 12 12 13 12 13 14 15 15 14 13 12 12 12 13 16 17 16 17 20 22
Wind_Direction
166 168 170 171 172 173 173 172 173 172 169 167 166 166 164 165 166 167 166 163 161 164 171 174 176 180 185 190 183 178 174 167 169 162 156 150 146 149 131 115 114 119 121 119 121 122 117 105 95 86 78 71 80 108 116 105 91 80 91 105 109 106
168 171 171 172 174 174 174 173 172 169 168 167 166 165 165 166 167 168 167 166 165 168 172 173 175 179 183 189 187 182 177 175 178 164 155 154 150 153 138 123 119 119 127 130 127 125 115 102 93 79 73 62 67 113 123 98 84 78 93 107 110 108
170 171 171 171 175 174 174 173 171 169 168 167 165 164 164 166 167 168 170 168 166 169 172 173 174 173 177 184 185 187 187 189 191 175 164 157 154 157 146 135 130 123 124 129 128 127 116 101 92 73 58 36 45 123 132 99 95 87 96 106 109 113
172 172 171 172 175 174 174 173 172 171 168 166 165 165 165 165 167 169 170 167 167 170 172 173 172 168 173 180 182 188 192 200 203 191 179 168 164 166 157 148 143 132 121 120 113 105 102 97 92 69 48 44 64 129 132 106 107 96 100 108 112 118
174 173 173 175 176 175 173 172 173 173 171 169 167 166 166 166 168 171 170 168 170 172 174 173 169 168 175 180 181 185 188 198 204 194 186 181 178 176 169 161 154 145 132 125 107 95 98 71 105 216 79 74 93 127 127 116 111 101 104 108 113 120
176 176 177 178 178 176 174 174 176 176 174 171 169 168 166 167 168 171 172 173 175 175 174 172 170 170 175 178 182 185 184 186 193 193 191 190 191 187 179 171 165 158 150 143 112 119 165 221 227 245 249 102 109 130 133 132 121 108 111 110 113 115
179 178 181 181 178 176 176 176 177 178 176 173 170 169 167 168 169 172 176 179 178 175 172 171 174 174 175 179 184 185 178 173 174 182 192 196 195 191 185 180 175 170 173 168 142 148 163 193 226 264 259 151 124 141 150 142 136 125 122 120 117 114
182 181 182 181 178 177 176 177 178 178 177 174 173 174 171 173 175 176 180 184 179 172 168 166 171 178 181 181 183 184 177 172 172 175 182 185 185 182 178 178 174 187 194 174 156 157 159 193 225 261 256 184 139 151 164 146 136 132 129 126 119 114
185 182 181 178 176 176 175 176 178 179 180 178 179 180 179 180 181 181 184 184 177 170 166 162 163 176 186 183 177 180 186 178 174 180 176 175 177 173 171 176 190 210 198 169 173 187 190 205 221 232 230 221 174 162 171 154 138 135 132 127 119 116
185 181 179 176 177 177 174 175 177 180 183 184 187 186 185 187 186 187 186 183 177 171 169 164 160 170 179 182 175 179 195 190 190 220 213 206 198 180 171 181 196 200 190 188 213 205 197 197 198 202 203 221 195 171 170 155 144 141 132 126 120 118
183 179 179 178 178 176 173 175 179 182 186 189 192 191 189 188 190 192 188 183 179 174 173 167 164 167 167 175 180 186 197 195 197 212 230 221 198 186 187 206 207 200 200 196 177 169 184 182 174 177 175 198 192 172 164 152 149 147 134 128 123 123
185 182 180 178 177 176 176 178 181 183 186 188 192 194 191 189 193 194 188 184 182 177 176 173 172 174 171 174 180 188 193 191 187 180 190 200 186 189 201 219 212 199 199 174 144 182 199 196 190 157 158 175 179 170 161 153 156 151 138 133 127 129
185 182 179 178 176 175 181 183 182 184 186 186 190 194 193 193 194 193 188 186 184 179 179 181 182 182 182 185 186 188 188 183 171 158 183 202 198 198 199 215 209 201 194 129 118 182 185 180 159 140 159 167 164 169 167 159 160 156 147 140 133 138
180 181 179 179 178 176 183 186 181 181 183 183 188 191 192 194 193 189 188 188 186 182 182 186 188 188 186 184 186 186 175 170 163 163 194 201 201 200 198 217 212 216 179 110 114 156 151 148 134 130 158 170 166 172 171 162 160 161 155 145 141 144
179 181 178 175 179 181 183 183 178 177 181 186 190 190 191 194 192 187 187 189 187 184 183 182 186 190 189 185 186 181 164 161 164 180 198 194 194 198 202 215 202 226 143 105 108 131 134 143 137 137 159 162 165 169 168 160 157 163 157 149 148 147
185 183 174 169 178 184 182 178 176 177 181 186 189 189 190 192 190 189 189 190 185 182 182 179 183 189 196 203 195 178 165 165 176 187 192 185 186 195 206 202 191 231 125 108 114 127 128 138 138 145 157 154 162 167 169 163 157 161 159 158 158 152
187 180 174 170 169 173 177 175 169 173 179 183 188 191 192 191 189 189 188 188 183 181 184 182 183 183 193 203 189 178 172 176 184 186 187 184 184 190 203 197 194 226 129 117 130 134 128 135 134 139 149 151 158 165 171 169 163 162 163 168 167 160
185 178 179 172 159 152 164 168 157 162 170 177 190 192 189 187 187 187 184 185 184 183 188 189 186 178 179 187 183 181 178 181 184 184 188 186 180 186 197 196 189 198 127 119 134 145 140 135 130 141 149 148 152 160 168 169 165 164 169 175 174 168
185 179 177 167 161 144 136 152 144 144 154 165 187 187 181 183 184 187 187 187 188 186 189 191 189 183 178 181 182 183 179 182 188 188 193 187 174 182 193 192 185 163 118 118 134 145 140 131 132 147 149 147 151 158 167 164 165 172 175 177 172 170
174 162 155 154 162 129 104 132 136 141 158 170 184 181 175 179 182 188 193 191 189 188 188 186 186 185 183 183 184 186 183 188 197 195 196 193 173 174 191 191 184 146 116 126 144 139 131 132 134 133 130 136 144 151 158 153 159 172 171 168 165 169
138 137 140 140 151 137 124 139 147 155 169 177 183 180 171 174 177 180 187 188 188 189 186 182 183 183 184 188 187 191 192 195 205 200 197 194 173 174 194 188 173 143 121 128 142 144 144 138 127 118 112 112 117 128 143 141 149 160 164 166 162 168
139 142 145 144 155 167 169 169 170 173 177 178 183 183 175 172 173 175 181 186 189 189 185 181 181 181 186 193 192 193 194 196 207 205 195 189 176 179 193 181 163 150 132 132 143 152 153 142 127 129 123 107 102 109 119 124 137 150 158 169 168 171
151 149 151 157 165 172 178 179 179 182 181 180 184 184 178 174 174 177 183 187 190 189 185 182 181 183 188 194 196 195 193 193 206 213 200 188 181 182 182 173 162 153 139 137 149 161 161 153 142 139 129 119 123 117 112 110 119 134 143 161 173 175
159 152 152 167 172 172 175 175 179 185 183 180 183 184 178 174 176 181 184 185 185 186 185 185 185 186 190 194 195 196 195 191 199 215 209 189 180 179 174 168 165 162 149 140 147 167 182 177 157 148 136 120 142 143 151 129 109 114 135 148 166 176
156 158 163 177 180 177 175 173 179 184 183 180 181 182 177 172 174 184 189 183 180 185 186 185 187 187 189 194 193 194 198 193 197 211 209 189 178 175 174 171 166 169 166 155 151 159 178 181 168 164 160 138 136 151 172 151 129 108 140 152 163 168
157 168 180 186 183 181 179 177 179 182 186 186 183 181 179 175 175 184 190 182 180 188 189 183 184 186 187 193 194 193 196 195 196 204 200 188 181 179 179 177 171 171 179 177 167 157 162 175 176 178 177 163 189 215 165 150 141 105 139 152 156 152
166 175 186 191 185 183 182 182 185 188 192 193 190 186 180 178 178 181 184 181 182 187 187 181 179 184 185 190 195 196 198 196 193 197 196 189 187 186 184 179 173 173 179 184 179 166 164 175 177 177 182 172 197 189 164 151 150 146 132 144 149 144
173 178 187 191 189 189 187 187 188 190 192 195 197 191 180 178 177 178 179 180 183 184 183 179 176 181 186 191 194 192 193 192 188 191 194 192 191 189 180 172 170 172 179 185 184 174 168 173 174 168 176 164 135 162 164 156 155 146 126 121 142 142
178 183 189 191 191 191 189 188 186 186 189 194 200 195 181 177 176 176 178 176 180 185 182 176 177 184 187 189 191 186 185 184 184 186 184 183 188 186 176 173 176 177 179 181 183 180 170 171 174 168 172 164 139 150 160 158 154 145 136 147 147 158
186 190 192 191 190 190 190 189 185 184 186 189 196 195 182 176 175 175 175 172 173 179 177 173 178 185 179 176 181 181 181 179 177 179 178 175 174 174 173 175 178 178 176 174 176 180 172 172 178 174 173 166 150 151 153 152 158 152 149 151 141 160
194 197 196 193 193 193 193 193 188 186 187 186 188 189 184 178 175 172 170 167 165 167 171 170 171 174 167 159 164 170 173 174 173 174 175 173 171 174 176 174 175 176 177 176 175 177 173 171 173 174 178 175 165 164 164 169 173 165 158 155 141 153
200 203 201 197 196 195 194 193 191 189 189 187 184 187 189 182 176 172 166 162 162 163 167 167 166 168 164 158 162 166 164 165 168 169 171 172 174 178 177 175 179 184 182 181 180 179 176 170 167 171 179 180 176 177 183 186 180 173 171 164 153 150
200 208 206 201 199 196 194 194 193 192 191 189 185 187 189 183 177 172 165 161 162 164 164 163 162 162 161 158 161 165 161 158 160 162 167 175 179 179 176 176 183 188 183 180 183 182 175 168 168 173 174 171 169 175 188 190 181 178 177 165 155 151
202 211 212 211 207 201 200 200 197 194 193 191 188 188 187 184 178 169 165 163 163 162 159 157 155 153 154 154 156 158 159 159 158 158 160 168 178 179 176 176 182 189 188 181 181 180 174 169 171 172 168 159 157 163 173 180 181 179 176 167 158 153
269 223 215 219 213 209 211 210 206 199 194 193 192 190 188 186 179 171 167 163 162 161 158 157 153 150 151 153 155 156 158 159 158 159 158 157 165 172 173 175 178 184 187 183 181 180 179 178 175 171 167 160 158 164 172 180 181 174 172 172 165 159
55 345 227 228 221 219 218 216 213 206 200 199 196 193 190 186 180 174 169 166 164 161 160 161 156 152 151 151 153 153 152 153 155 159 159 155 156 162 166 172 176 177 177 182 184 183 183 183 177 171 168 166 167 172 178 181 177 169 168 171 170 167
190 203 216 226 225 223 218 215 215 210 204 201 197 195 192 186 180 175 172 169 164 159 157 158 155 152 152 150 148 149 146 147 155 159 159 161 160 159 163 167 171 173 172 179 184 181 182 183 177 172 167 169 174 174 175 175 172 169 168 168 170 173